Location: Barrio Pajares
(40.5500°N, 4.1667°W)
Time: 09:43:31
(UTC+00:00)

SL-4 R/B - Pass Details

Date: 18 April 2024
Orbit: 413 x 603 km, 51.6° (Epoch: 19 May)

Event Time Altitude Azimuth Distance (km) Brightness Sun altitude
Rises 21:47:08 0° 310° (NW) 2,470 6.6 -27.8°
Reaches altitude 10° 21:49:30 10° 322° (NW) 1,564 5.3 -28.1°
Enters shadow 21:51:00 20° 340° (NNW) 1,073 4.1 -28.3°
